Regional Weather Roundup
Issued by NWS Columbia, SC

Home | Current Version | Previous Version | Text Only | Print | Product List | Glossary On
Versions: 1 2 3 4 5 6 7 8 9 10 11 12 13 14 15 16 17 18 19 20 21 22 23 24 25 26 27 28 29 30 31 32 33 34 35 36 37 38 39 40 41 42 43 44 45 46 47 48 49 50
000
ASUS42 KCAE 311710
RWRCAE
REGIONAL WEATHER ROUNDUP
NATIONAL WEATHER SERVICE COLUMBIA SC
1200 PM EST SAT JAN 31 2015

NOTE: "FAIR" INDICATES FEW OR NO CLOUDS BELOW 12,000 FEET WITH NO
SIGNIFICANT WEATHER AND/OR OBSTRUCTIONS TO VISIBILITY.

NOT ALL STATIONS ARE QUALITY CONTROLLED BY THE NATIONAL
WEATHER SERVICE. USE DATA WITH CAUTION...ESPECIALLY
DEWPOINT OBSERVATIONS.

SCZ001>056-GAZ040-063>065-077-311800-
...UPSTATE SOUTH CAROLINA...

CITY           SKY/WX    TMP DP  RH WIND       PRES   REMARKS
ANDERSON       MOSUNNY   44  17  33 W6        30.37F
LIBERTY        SUNNY     44  24  46 MISG      30.35F
SPARTANBURG    SUNNY     46  12  25 W5        30.35F
CLEMSON        MOSUNNY   44  15  31 SW5       30.37F
GREENVILLE     SUNNY     45  15  30 W7        30.36F
GREENWOOD      SUNNY     45  12  26 CALM      30.39F
GREER          SUNNY     46  13  26 W7        30.34F
ROCK HILL      SUNNY     45  14  28 VRB5      30.37F
CHESTER        SUNNY     46   5  18 CALM      30.39S
LAURENS        SUNNY     45  23  42 W5        30.37F


...CENTRAL SOUTH CAROLINA...

CITY           SKY/WX    TMP DP  RH WIND       PRES   REMARKS
COLUMBIA APT   PTSUNNY   47  13  25 CALM      30.39F
COLUMBIA OWENS SUNNY     47  11  23 VRB3      30.40F
DARLINGTON     SUNNY     45  12  26 CALM      30.41S
FLORENCE       SUNNY     46  10  23 VRB5      30.39F
MCENTIRE ANGB  MOSUNNY   48   9  20 SW5       30.39F
ORANGEBURG     SUNNY     46  11  24 CALM      30.39F
SUMTER SHAW    SUNNY     46  10  23 VRB2      30.38F
NEWBERRY       SUNNY     43  14  31 SW3       30.41F
AIKEN          FAIR      46  18  31 CALM      30.41F
BARNWELL       FAIR      48  18  29 CALM      30.41F
MANNING        FAIR      46  10  23 N6        30.41S
CAMDEN         FAIR      45   9  23 CALM      30.40S
LANCASTER      SUNNY     45  10  24 W5        30.39S
WINNSBORO      SUNNY     45  12  26 CALM      30.37F


...EASTERN AND COASTAL SOUTH CAROLINA...

CITY           SKY/WX    TMP DP  RH WIND       PRES   REMARKS
MYRTLE BEACH   SUNNY     46   9  21 N12       30.41F
N MYRTLE BCH   SUNNY     46   7  20 N8G17     30.38F
CONWAY         FAIR      45  10  24 N6        30.39F
MARION         FAIR      46   5  18 N12       30.39F
HARTSVILLE     FAIR      46  21  36 CALM      30.39F
FLORENCE       SUNNY     46  10  23 VRB5      30.39F
DARLINGTON     SUNNY     45  12  26 CALM      30.41S
CHARLESTON APT MOSUNNY   50   7  17 N8        30.40F
MOUNT PLEASANT FAIR      48   9  20 N5        30.40F
WALTERBORO     SUNNY     50   1  13 E6        30.41F
BEAUFORT       SUNNY     48  18  30 E7        30.41F


...EASTERN GEORGIA...

CITY           SKY/WX    TMP DP  RH WIND       PRES   REMARKS
AUGUSTA BUSH F SUNNY     48  16  27 SW5       30.41F
AUGUSTA DANIEL SUNNY     48  15  26 SW6       30.40F
THOMSON        SUNNY     49  22  33 E3        30.44F
WASHINGTON     FAIR      48  25  40 S5        30.39S
CLAXTON        FAIR      50  21  32 SE3       30.41F
SYLVANIA       SUNNY     48  22  35 CALM      30.42F
STATESBORO     SUNNY     50  18  28 SE5       30.42S
SAVANNAH       MOSUNNY   50  12  21 CALM      30.42F


...SOUTHERN NORTH CAROLINA...

CITY           SKY/WX    TMP DP  RH WIND       PRES   REMARKS
CHARLOTTE      MOSUNNY   45   8  22 W5        30.37F
MONROE         SUNNY     46   7  20 N9        30.37S
WADESBORO      SUNNY     44   7  21 NW3       30.39F
ROCKINGHAM       N/A     44   6  20 NE3       30.37F
RUTHERFORDTON  SUNNY     43   3  19 S5        30.35F
ASHEVILLE      MOSUNNY   39  -3  17 N5        30.33S

$$


USA.gov is the U.S. government's official web portal to all federal, state and local government web resources and services.